This is the latest recevied weather packets stored in our database for station/object EA6AMI-5. If no packets are shown the sender has not sent any weather packets the latest 10 day(s).
| Time | Temp. | Humidity | Pressure | Rain* | Wind** | Luminosity | Snow |
|---|---|---|---|---|---|---|---|
| 1787877903 | 28.89° C | 40% | 1015.6 hPa | 0 mm | - | 0 W/m² | - |
| 1787877363 | 28.89° C | 42% | 1015.4 hPa | 0 mm | - | 0 W/m² | - |
| 1787876823 | 28.89° C | 44% | 1015.5 hPa | 0 mm | - | 0 W/m² | - |
| 1787876284 | 28.33° C | 47% | 1015.4 hPa | 0 mm | - | 0 W/m² | - |
| 1787875743 | 27.22° C | 54% | 1015.3 hPa | 0 mm | - | 0 W/m² | - |
| 1787875203 | 26.67° C | 64% | 1015.6 hPa | 0 mm | - | 0 W/m² | - |
| 1787874844 | 26.67° C | 67% | 1015.5 hPa | 0 mm | - | 0 W/m² | - |
| 1787874303 | 26.67° C | 71% | 1015.6 hPa | 0 mm | - | 0 W/m² | - |
| 1787873763 | 26.67° C | 71% | 1016.1 hPa | 0 mm | - | 0 W/m² | - |
| 1787873224 | 26.67° C | 68% | 1016.3 hPa | 0 mm | - | 0 W/m² | - |
| 1787872683 | 26.67° C | 70% | 1015.9 hPa | 0 mm | - | 0 W/m² | - |
| 1787872143 | 26.67° C | 71% | 1016.3 hPa | 0 mm | - | 0 W/m² | - |
| 1787871603 | 26.67° C | 72% | 1016.1 hPa | 0 mm | - | 0 W/m² | - |
| 1787871243 | 26.67° C | 72% | 1016.3 hPa | 0 mm | - | 0 W/m² | - |
| 1787870703 | 26.67° C | 73% | 1016.6 hPa | 0 mm | - | 0 W/m² | - |
| 1787870163 | 26.67° C | 73% | 1017 hPa | 0 mm | - | 0 W/m² | - |
| 1787869624 | 26.67° C | 72% | 1016.9 hPa | 0 mm | - | 0 W/m² | - |
| 1787869083 | 26.67° C | 71% | 1017.2 hPa | 0 mm | - | 0 W/m² | - |
| 1787868543 | 26.67° C | 71% | 1017 hPa | 0 mm | - | 0 W/m² | - |
| 1787868004 | 27.22° C | 71% | 1016.6 hPa | 0 mm | - | 0 W/m² | - |
| 1787867643 | 27.22° C | 68% | 1015.8 hPa | 0 mm | - | 0 W/m² | - |
| 1787867103 | 26.67° C | 68% | 1015.6 hPa | 0 mm | - | 0 W/m² | - |
| 1787866563 | 27.22° C | 68% | 1015.8 hPa | 0 mm | - | 0 W/m² | - |
| 1787866023 | 27.22° C | 68% | 1015.4 hPa | 0 mm | - | 0 W/m² | - |
| 1787865483 | 27.22° C | 67% | 1016.1 hPa | 0 mm | - | 0 W/m² | - |
* Rain latest hour (hover to see other rain measurements)
** Current wind speed in m/s (hover to see current wind gust speed)